Location: ?
(35.4214°N, 139.3011°E)
Time: 22:40:04
(UTC+00:00)

Cosmos 1758 Rocket - Pass Details

Date: 14 July 2020
Orbit: 601 x 637 km, 82.5° (Epoch: 10 August)

Event Time Altitude Azimuth Distance (km) Brightness Sun altitude
Rises 10:42:13 0° 194° (SSW) 2,921 6.8 -8.5°
Reaches altitude 10° 10:44:29 10° 197° (SSW) 2,016 6.0 -8.8°
Maximum altitude 10:48:54 61° 278° (W) 723 4.2 -9.6°
Drops below altitude 10° 10:53:21 10° 359° (N) 2,021 6.7 -10.3°
Sets 10:55:37 0° 3° (N) 2,929 7.5 -10.7°
